Location: Colonia Mina de C?rbuni
(46.1667°N, 22.7167°E)
Time: 06:53:00
(UTC+00:00)

Tiros 1 - Pass Details

Date: 29 April 2024
Orbit: 624 x 657 km, 48.4° (Epoch: 26 May)

Event Time Altitude Azimuth Distance (km) Brightness Sun altitude
Rises 17:58:47 0° 204° (SSW) 2,953 10.5 -4.5°
Reaches altitude 10° 18:01:33 10° 189° (S) 2,041 9.5 -4.9°
Maximum altitude 18:05:07 22° 139° (SE) 1,418 8.4 -5.5°
Drops below altitude 10° 18:08:41 10° 90° (E) 2,033 9.2 -6.0°
Sets 18:11:25 0° 75° (ENE) 2,938 10.1 -6.4°
